[[{"header":{"parameterUnit":"m.s-1","parameterCategory":1,"la1":30.2991,"la2":30.254,"lo1":-89.0895,"lo2":-89.0444,"dy":0.0017,"dx":0.0017,"nx":28,"ny":28,"refTime":"2025-06-09T03:00:00:Z","depth":0,"parameterNumber":2,"parameterNumberName":"U-component_of_WINDS"},"data":[0,0,0,0,0,0,0,0,0,0,0,0,0,0,0,0,0,0,0,0,0,0,0,0,0,0,0,0,0,0,0,0,0,0,0,0,0,0,0,0,0,0,0,0,0,0,0,0,0,0,0,0,0,0,0,0,0,0,5.7868,5.787,0,5.8008,5.8009,5.8011,5.7948,5.7945,5.7941,5.7938,5.8081,5.8088,5.8095,0,0,0,0,0,0,0,0,0,0,0,0,0,5.7546,5.7552,5.7868,5.787,5.7872,5.8007,5.8009,5.8011,5.7949,5.7944,5.794,5.7936,5.8079,5.8087,5.8095,0,0,0,0,0,0,0,0,0,0,0,0,0,5.7686,5.7554,5.7868,5.7857,5.7857,5.8007,5.8009,5.8012,5.795,5.7944,5.7939,5.7934,5.8076,5.8086,5.8097,5.8265,0,0,5.8129,5.8133,0,0,0,0,0,0,0,0,5.7678,5.7698,5.7857,5.7858,5.7858,5.7955,5.7948,5.8097,5.7951,5.7915,5.7938,5.7932,5.8043,5.8056,5.8094,5.8272,5.8278,5.813,5.8136,5.8141,5.8144,0,0,0,0,0,0,0,5.7668,5.7691,5.7923,5.7859,5.786,5.7844,5.7858,5.7976,5.8006,5.7917,5.7913,5.793,5.8043,5.8084,5.8097,5.828,5.8129,5.8139,5.8145,5.8149,5.86,5.8606,0,0,0,0,0,0,5.7659,5.7684,5.7919,5.7927,5.7754,5.7854,5.787,5.7929,5.8005,5.8011,5.7935,5.7927,5.8068,5.8084,5.8101,5.8301,5.8141,5.815,5.8157,5.8595,5.8601,5.8608,0,0,0,0,0,0,5.7652,5.768,5.7913,5.7804,5.7833,5.7865,5.7932,5.7935,5.7976,5.8018,5.8023,5.7971,5.8065,5.8087,5.8224,5.8305,5.8155,5.8165,5.8588,5.8597,5.8605,5.8703,0,0,0,0,0,0,5.7643,5.7678,5.7743,5.7806,5.7839,5.8034,5.7938,5.7941,5.7994,5.7985,5.8053,5.806,5.8062,5.8209,5.8235,5.8317,5.8173,5.8581,5.8592,5.8602,5.8693,5.8714,5.8732,0,0,0,0,0,5.7632,5.7767,5.7747,5.7776,5.7921,5.8039,5.8058,5.8058,5.8001,5.8066,5.8092,5.8058,5.8293,5.8223,5.8252,5.8339,5.8576,5.8589,5.8601,5.8684,5.871,5.8732,0,0,0,0,0,0,5.7713,5.7775,5.7754,5.7913,5.7971,5.8028,5.811,5.8086,5.8162,5.8151,5.8148,5.8164,5.8305,5.8336,5.8258,5.8504,5.8425,5.8444,5.8479,5.8503,5.8523,5.8511,5.8182,0,0,0,0,0,5.7749,5.7841,5.789,5.8025,5.8055,5.8078,5.813,5.8125,5.8185,5.8209,5.8246,5.8306,5.8393,5.845,5.8533,5.8698,5.871,5.8771,5.8791,5.8807,5.8822,5.8908,5.8935,5.8649,5.8649,5.8649,0,0,5.7826,5.787,5.7928,5.8043,5.8087,5.818,5.8099,5.8203,5.8271,5.8225,5.8356,5.8386,5.8452,5.8603,5.8671,5.8633,5.8904,5.8823,5.8835,5.8842,5.8924,5.8951,5.8975,5.8658,5.8656,5.8655,0,0,5.8011,5.8056,5.8172,5.8218,5.8286,5.83,5.8327,5.8388,5.8406,5.8537,5.8504,5.8585,5.8736,5.8784,5.8828,5.9029,5.8998,5.9056,5.9158,5.9242,5.9264,5.9284,5.9352,5.9378,5.9072,5.9073,5.9073,0,5.8097,5.8236,5.8235,5.8339,5.8389,5.8352,5.8468,5.8513,5.8605,5.864,5.8596,5.8781,5.8824,5.8983,5.9032,5.9071,5.91,5.9047,5.9261,5.9281,5.9299,5.9365,5.9391,5.9079,5.9078,5.9077,5.9077,0,5.8337,5.8434,5.852,5.8608,5.8668,5.8778,5.8792,5.8853,5.8842,5.8861,5.8993,5.9043,5.9133,5.9171,5.9163,5.9329,5.9303,5.9261,5.918,5.9333,5.9394,5.9419,5.9088,5.9086,5.9084,5.9082,0,0,5.8577,5.8662,5.8693,5.8731,5.8802,5.8877,5.8985,5.9073,5.9123,5.9188,5.9276,5.9404,5.9364,5.9414,5.9411,5.9485,5.9636,5.9432,5.9434,5.9466,5.9819,5.9848,5.9877,5.9618,5.9622,5.9626,5.9812,0,5.8765,5.8954,5.8954,5.9127,5.9215,5.918,5.9273,5.9327,5.9346,5.9423,5.9445,5.9534,5.9477,5.9506,5.9578,5.9603,5.9707,5.959,5.9698,5.9702,5.9679,5.991,5.9942,6.0114,5.9836,5.984,5.9843,0,5.901,5.9081,5.9262,5.9318,5.9355,5.9439,5.9518,5.9593,5.9652,5.9661,5.9715,5.97,5.9808,5.9726,5.9874,5.9794,5.9838,5.9857,5.9864,5.9872,5.978,5.992,6.017,6.0194,5.9882,5.9879,5.9876,0,5.9163,5.9304,5.943,5.9464,5.9533,5.9592,5.9624,5.9678,5.973,5.9799,5.9832,5.9913,5.9957,6.002,6.0026,5.9966,6.0173,6.0093,6.0181,6.0181,6.0224,6.0221,6.0481,6.0258,6.0258,6.0258,6.0257,0,5.9371,5.9483,5.9498,5.9576,5.9699,5.9698,5.982,5.9847,5.9895,5.9975,5.9951,6.0027,6.0032,6.011,6.0116,6.0234,6.0256,6.0264,6.0264,6.0265,6.0263,6.0291,6.0278,6.0264,6.0263,6.0262,6.026,0,5.9561,5.9577,5.9711,5.9765,5.9781,5.987,5.9915,5.9988,6.0005,6.0107,6.0131,6.0157,6.0247,6.026,6.0367,6.037,6.0512,6.0501,6.0491,6.0489,6.0575,6.0565,6.086,6.0897,6.0653,6.0656,6.0658,0,5.9692,5.9777,5.9839,5.9891,5.9925,6.001,6.0062,6.0064,6.0119,6.0191,6.0255,6.0342,6.0412,6.0557,6.0585,6.0666,6.0654,6.0752,6.0666,6.0663,6.0651,6.0645,6.0652,6.0767,6.077,6.0772,6.0774,0,5.9921,5.9923,5.9999,6.0078,6.014,6.0202,6.026,6.0304,6.0314,6.0377,6.0468,6.0522,6.0629,6.0715,6.0794,6.0825,6.0801,6.0801,6.0825,6.0825,6.0815,6.0818,6.0533,6.0794,6.0792,6.079,6.0789,6.0788,6.0083,6.0155,6.0209,6.0294,6.0338,6.0392,6.0462,6.0487,6.0563,6.0649,6.0647,6.0746,6.08,6.0904,6.0941,6.1018,6.0985,6.1021,6.103,6.1038,6.1044,6.0805,6.1033,6.1032,6.1031,6.1031,6.1031,0,6.0307,6.034,6.0418,6.0499,6.0565,6.0537,6.0599,6.0655,6.0743,6.0796,6.0865,6.0968,6.1051,6.1085,6.1166,6.122,6.1211,6.1241,6.1236,6.1242,6.107,6.104,6.1247,6.1247,6.1247,6.1247,6.1247,6.1247,6.0431,6.055,6.056,6.07,6.0732,6.0828,6.0866,6.0915,6.0957,6.1073,6.1141,6.1163,6.1208,6.1291,6.1365,6.1373,6.1402,6.1437,6.1439,6.1277,6.1255,6.1234,6.1205,6.1444,6.1444,6.1605,6.1606,6.1607]},{"header":{"parameterUnit":"m.s-1","parameterCategory":1,"la1":30.2991,"la2":30.254,"lo1":-89.0895,"lo2":-89.0444,"dy":0.0017,"dx":0.0017,"nx":28,"ny":28,"refTime":"2025-06-09T03:00:00:Z","depth":0,"parameterNumber":3,"parameterNumberName":"V-component_of_WINDS"},"data":[0,0,0,0,0,0,0,0,0,0,0,0,0,0,0,0,0,0,0,0,0,0,0,0,0,0,0,0,0,0,0,0,0,0,0,0,0,0,0,0,0,0,0,0,0,0,0,0,0,0,0,0,0,0,0,0,0,0,4.1247,4.1248,0,4.1342,4.1343,4.1344,4.1317,4.1315,4.1313,4.1311,4.1406,4.141,4.1415,0,0,0,0,0,0,0,0,0,0,0,0,0,4.1039,4.1043,4.1247,4.1248,4.125,4.1342,4.1343,4.1345,4.1317,4.1315,4.1313,4.131,4.1405,4.141,4.1415,0,0,0,0,0,0,0,0,0,0,0,0,0,4.1131,4.1044,4.1247,4.1247,4.1248,4.1342,4.1343,4.1345,4.1318,4.1315,4.1312,4.1309,4.1403,4.1409,4.1416,4.1514,0,0,4.1436,4.1438,0,0,0,0,0,0,0,0,4.1126,4.1138,4.1246,4.1247,4.1249,4.1315,4.1304,4.1402,4.1318,4.1291,4.1311,4.1308,4.1378,4.1386,4.141,4.1519,4.1523,4.1436,4.144,4.1443,4.1445,0,0,0,0,0,0,0,4.1119,4.1134,4.1285,4.1247,4.1249,4.1241,4.1251,4.1323,4.135,4.1293,4.1292,4.1303,4.1378,4.1404,4.1412,4.1524,4.1436,4.1442,4.1446,4.1448,4.1715,4.1718,0,0,0,0,0,0,4.1112,4.1129,4.1282,4.1287,4.1179,4.1247,4.1258,4.1296,4.1349,4.1354,4.1306,4.1302,4.1394,4.1405,4.1416,4.1533,4.1443,4.1449,4.1453,4.1711,4.1715,4.1719,0,0,0,0,0,0,4.1108,4.1126,4.1278,4.1208,4.1227,4.1254,4.1297,4.13,4.1326,4.1358,4.1363,4.1328,4.1393,4.1406,4.1489,4.1535,4.1452,4.1458,4.1708,4.1713,4.1717,4.1768,0,0,0,0,0,0,4.1102,4.1125,4.1164,4.1209,4.123,4.1351,4.13,4.1304,4.1338,4.1333,4.138,4.1385,4.1391,4.148,4.1496,4.1543,4.1463,4.1704,4.171,4.1715,4.1763,4.1774,4.1784,0,0,0,0,0,4.1095,4.1175,4.1166,4.1184,4.128,4.1354,4.1366,4.1373,4.1341,4.138,4.14,4.1383,4.1528,4.1489,4.1506,4.1556,4.1701,4.1708,4.1715,4.1758,4.1772,4.1784,0,0,0,0,0,0,4.1134,4.1181,4.1171,4.1268,4.1308,4.1349,4.1398,4.1388,4.1436,4.143,4.1435,4.1446,4.153,4.1552,4.1507,4.1653,4.1609,4.1621,4.1636,4.165,4.166,4.1653,4.1468,0,0,0,0,0,4.1154,4.1211,4.1249,4.133,4.1351,4.1371,4.1404,4.1405,4.1446,4.1462,4.1488,4.1527,4.1581,4.1617,4.1668,4.1765,4.1774,4.1808,4.1819,4.1828,4.1837,4.1887,4.1902,4.1742,4.1742,4.1742,0,0,4.1195,4.1228,4.1264,4.1339,4.137,4.1427,4.1385,4.1449,4.1492,4.1471,4.1551,4.1571,4.1615,4.1705,4.1746,4.1725,4.1883,4.1837,4.1843,4.1848,4.1896,4.1911,4.1925,4.1747,4.1746,4.1745,0,0,4.1301,4.1332,4.1403,4.1434,4.148,4.1493,4.151,4.1553,4.1566,4.1646,4.1631,4.1681,4.1775,4.1806,4.1834,4.1948,4.1934,4.1965,4.2021,4.207,4.2083,4.2094,4.2133,4.2147,4.1974,4.1974,4.1974,0,4.1347,4.1435,4.144,4.1505,4.1537,4.1521,4.1592,4.1621,4.1682,4.1704,4.168,4.1795,4.1824,4.192,4.1947,4.1971,4.1989,4.1959,4.2081,4.2092,4.2102,4.214,4.2155,4.1977,4.1977,4.1977,4.1976,0,4.1487,4.1548,4.16,4.1659,4.1697,4.1764,4.1778,4.1816,4.1813,4.1828,4.1908,4.1941,4.1998,4.2021,4.202,4.2116,4.2101,4.2079,4.2036,4.2121,4.2156,4.217,4.1982,4.1981,4.198,4.1979,0,0,4.1621,4.1681,4.17,4.1725,4.1774,4.1821,4.1886,4.1942,4.1974,4.2015,4.2069,4.2147,4.2126,4.2158,4.2159,4.2203,4.2288,4.2175,4.2175,4.2193,4.2394,4.241,4.2427,4.2279,4.2282,4.2284,4.239,0,4.173,4.1846,4.1851,4.1956,4.2011,4.1996,4.2052,4.2088,4.2103,4.215,4.2166,4.2221,4.219,4.2209,4.2251,4.2269,4.2329,4.2262,4.2328,4.233,4.2316,4.2445,4.2463,4.2561,4.2404,4.2406,4.2408,0,4.1872,4.1918,4.2029,4.2068,4.2091,4.2142,4.2192,4.2239,4.2277,4.2285,4.2319,4.2314,4.2379,4.2333,4.2421,4.2375,4.2402,4.2415,4.2419,4.2425,4.2374,4.2453,4.2593,4.2607,4.243,4.2428,4.2427,0,4.1957,4.2046,4.2123,4.2146,4.2194,4.2229,4.2251,4.2287,4.2319,4.2363,4.2384,4.2434,4.2462,4.25,4.2507,4.2474,4.2595,4.255,4.2601,4.2601,4.2627,4.2625,4.2772,4.2646,4.2646,4.2646,4.2646,0,4.2077,4.2144,4.2161,4.2209,4.2283,4.2288,4.2361,4.238,4.2412,4.2461,4.2451,4.2497,4.2504,4.2551,4.2558,4.2628,4.2641,4.2648,4.2648,4.2648,4.2647,4.2665,4.2658,4.265,4.2649,4.2648,4.2647,0,4.2184,4.2198,4.2281,4.2319,4.233,4.2383,4.2415,4.2459,4.2472,4.2535,4.2549,4.257,4.2624,4.2636,4.2701,4.2705,4.2788,4.2783,4.2775,4.2775,4.2824,4.2819,4.2987,4.3008,4.287,4.2871,4.2872,0,4.2259,4.2311,4.2354,4.2386,4.241,4.2462,4.2495,4.2501,4.2536,4.2582,4.262,4.2674,4.2717,4.2806,4.2825,4.2874,4.2869,4.2924,4.2876,4.2873,4.2868,4.2864,4.2868,4.2933,4.2935,4.2936,4.2937,0,4.239,4.2394,4.2443,4.2493,4.2532,4.2572,4.261,4.2637,4.2647,4.2686,4.2742,4.2776,4.2842,4.2894,4.2943,4.2963,4.2951,4.2952,4.2966,4.2966,4.2959,4.2962,4.2799,4.2948,4.2947,4.2946,4.2945,4.2945,4.2483,4.2527,4.2564,4.2617,4.2646,4.2681,4.2724,4.2742,4.2789,4.2844,4.2844,4.2905,4.294,4.3004,4.3027,4.3073,4.3056,4.3077,4.3082,4.3086,4.309,4.2952,4.3082,4.3082,4.3082,4.3081,4.3081,0,4.2612,4.2635,4.2684,4.2737,4.2778,4.2764,4.2804,4.2839,4.2893,4.2927,4.297,4.3033,4.3083,4.3106,4.3156,4.3188,4.3184,4.3201,4.3198,4.3202,4.3104,4.3086,4.3203,4.3203,4.3203,4.3203,4.3203,4.3203,4.2685,4.2758,4.2766,4.2853,4.2875,4.2935,4.2958,4.299,4.3017,4.3088,4.313,4.3145,4.3174,4.3225,4.3269,4.3275,4.3293,4.3312,4.3315,4.3222,4.321,4.3198,4.3181,4.3316,4.3316,4.3409,4.341,4.341]}]]